Time,TemperatureF,DewpointF,PressureIn,WindDirection,WindDirectionDegrees,WindSpeedMPH,WindSpeedGustMPH,Humidity,HourlyPrecipIn,Conditions,Clouds,dailyrainin,SoftwareType,DateUTC
2013-05-17 00:03:00,62.0,40.0,29.98,West,264,1.0,2.0,45,0.00,,,0.00,,2013-05-17 04:03:00,
2013-05-17 00:13:00,62.0,40.0,29.98,West,264,1.0,2.0,45,0.00,,,0.00,,2013-05-17 04:13:00,
2013-05-17 00:23:00,62.0,42.0,29.98,WSW,248,2.0,2.0,47,0.00,,,0.00,,2013-05-17 04:23:00,
2013-05-17 00:33:00,61.0,41.0,29.98,WNW,291,1.0,2.0,47,0.00,,,0.00,,2013-05-17 04:33:00,
2013-05-17 00:43:00,61.0,41.0,29.98,WNW,291,1.0,2.0,47,0.00,,,0.00,,2013-05-17 04:43:00,
2013-05-17 00:53:00,61.0,41.0,29.99,SW,226,1.0,3.0,48,0.00,,,0.00,,2013-05-17 04:53:00,
2013-05-17 01:03:00,60.0,41.0,30.00,ENE,70,0.0,0.0,49,0.00,,,0.00,,2013-05-17 05:03:00,
2013-05-17 01:14:00,60.0,41.0,30.00,ENE,70,0.0,0.0,49,0.00,,,0.00,,2013-05-17 05:14:00,
2013-05-17 01:22:00,60.0,41.0,30.01,SW,228,1.0,5.0,50,0.00,,,0.00,,2013-05-17 05:22:00,
2013-05-17 01:32:00,59.0,40.0,30.01,North,0,1.0,2.0,49,0.00,,,0.00,,2013-05-17 05:32:00,
2013-05-17 01:42:00,59.0,40.0,30.01,North,0,1.0,2.0,49,0.00,,,0.00,,2013-05-17 05:42:00,
2013-05-17 01:52:00,59.0,40.0,30.01,WNW,292,0.0,0.0,49,0.00,,,0.00,,2013-05-17 05:52:00,
2013-05-17 02:02:00,58.0,38.0,30.00,SSE,154,0.0,0.0,48,0.00,,,0.00,,2013-05-17 06:02:00,
2013-05-17 02:11:00,58.0,38.0,30.00,SSE,154,0.0,0.0,48,0.00,,,0.00,,2013-05-17 06:11:00,
2013-05-17 02:22:00,58.0,38.0,30.01,ENE,71,0.0,0.0,48,0.00,,,0.00,,2013-05-17 06:22:00,
2013-05-17 02:32:00,57.0,38.0,30.01,West,269,0.0,0.0,49,0.00,,,0.00,,2013-05-17 06:32:00,
2013-05-17 02:42:00,57.0,38.0,30.01,West,269,0.0,0.0,49,0.00,,,0.00,,2013-05-17 06:42:00,
2013-05-17 02:52:00,56.0,37.0,30.01,NNW,341,0.0,1.0,49,0.00,,,0.00,,2013-05-17 06:52:00,
2013-05-17 03:02:00,56.0,38.0,30.01,NNE,18,1.0,2.0,50,0.00,,,0.00,,2013-05-17 07:02:00,
2013-05-17 03:11:00,56.0,38.0,30.01,NNE,18,1.0,2.0,50,0.00,,,0.00,,2013-05-17 07:11:00,
2013-05-17 03:21:00,55.0,37.0,30.01,WNW,290,1.0,2.0,50,0.00,,,0.00,,2013-05-17 07:21:00,
2013-05-17 03:32:00,55.0,35.0,30.01,NNE,22,1.0,2.0,47,0.00,,,0.00,,2013-05-17 07:32:00,
2013-05-17 03:43:00,55.0,35.0,30.01,NNE,22,1.0,2.0,47,0.00,,,0.00,,2013-05-17 07:43:00,
2013-05-17 03:53:00,56.0,38.0,30.03,NW,316,1.0,2.0,50,0.00,,,0.00,,2013-05-17 07:53:00,
2013-05-17 04:02:00,55.0,37.0,30.03,NNW,340,1.0,2.0,51,0.00,,,0.00,,2013-05-17 08:02:00,
2013-05-17 04:12:00,55.0,37.0,30.03,NNW,340,1.0,2.0,51,0.00,,,0.00,,2013-05-17 08:12:00,
2013-05-17 04:23:00,55.0,38.0,30.04,SSE,159,1.0,2.0,53,0.00,,,0.00,,2013-05-17 08:23:00,
2013-05-17 04:33:00,54.0,38.0,30.04,NNW,334,1.0,1.0,55,0.00,,,0.00,,2013-05-17 08:33:00,
2013-05-17 04:42:00,54.0,38.0,30.04,NNW,334,1.0,1.0,55,0.00,,,0.00,,2013-05-17 08:42:00,
2013-05-17 04:52:00,54.0,38.0,30.05,WSW,248,1.0,2.0,55,0.00,,,0.00,,2013-05-17 08:52:00,
2013-05-17 05:02:00,53.0,38.0,30.06,ESE,108,1.0,2.0,56,0.00,,,0.00,,2013-05-17 09:02:00,
2013-05-17 05:12:00,53.0,38.0,30.06,ESE,108,1.0,2.0,56,0.00,,,0.00,,2013-05-17 09:12:00,
2013-05-17 05:22:00,53.0,39.0,30.07,NW,307,0.0,0.0,58,0.00,,,0.00,,2013-05-17 09:22:00,
2013-05-17 05:33:00,52.0,38.0,30.07,NNE,18,0.0,1.0,58,0.00,,,0.00,,2013-05-17 09:33:00,
2013-05-17 05:42:00,52.0,38.0,30.07,NNE,18,0.0,1.0,58,0.00,,,0.00,,2013-05-17 09:42:00,
2013-05-17 05:53:00,52.0,39.0,30.08,NNE,21,0.0,1.0,60,0.00,,,0.00,,2013-05-17 09:53:00,
2013-05-17 06:03:00,51.0,38.0,30.09,NNE,22,0.0,1.0,60,0.00,,,0.00,,2013-05-17 10:03:00,
2013-05-17 06:12:00,51.0,38.0,30.09,NNE,22,0.0,1.0,60,0.00,,,0.00,,2013-05-17 10:12:00,
2013-05-17 06:23:00,51.0,38.0,30.10,NNE,23,0.0,1.0,62,0.00,,,0.00,,2013-05-17 10:23:00,
2013-05-17 06:33:00,51.0,39.0,30.10,NNE,22,0.0,1.0,63,0.00,,,0.00,,2013-05-17 10:33:00,
2013-05-17 06:42:00,51.0,39.0,30.10,NNE,22,0.0,1.0,63,0.00,,,0.00,,2013-05-17 10:42:00,
2013-05-17 06:54:00,50.0,38.0,30.11,NNE,22,1.0,2.0,64,0.00,,,0.00,,2013-05-17 10:54:00,
2013-05-17 07:02:00,50.0,38.0,30.12,NNW,340,2.0,2.0,64,0.00,,,0.00,,2013-05-17 11:02:00,
2013-05-17 07:12:00,50.0,38.0,30.12,NNW,340,2.0,2.0,64,0.00,,,0.00,,2013-05-17 11:12:00,
2013-05-17 07:23:00,51.0,39.0,30.13,NNE,24,1.0,2.0,64,0.00,,,0.00,,2013-05-17 11:23:00,
2013-05-17 07:34:00,51.0,39.0,30.13,South,181,1.0,2.0,64,0.00,,,0.00,,2013-05-17 11:34:00,
2013-05-17 07:42:00,51.0,39.0,30.13,South,181,1.0,2.0,64,0.00,,,0.00,,2013-05-17 11:42:00,
2013-05-17 07:53:00,52.0,40.0,30.14,WNW,295,1.0,2.0,63,0.00,,,0.00,,2013-05-17 11:53:00,
2013-05-17 08:03:00,53.0,41.0,30.15,SSW,203,1.0,2.0,63,0.00,,,0.00,,2013-05-17 12:03:00,
2013-05-17 08:12:00,53.0,41.0,30.15,SSW,203,1.0,2.0,63,0.00,,,0.00,,2013-05-17 12:12:00,
2013-05-17 08:23:00,53.0,40.0,30.15,NNW,346,1.0,2.0,62,0.00,,,0.00,,2013-05-17 12:23:00,
2013-05-17 08:32:00,53.0,41.0,30.15,NNW,338,0.0,2.0,63,0.00,,,0.00,,2013-05-17 12:32:00,
2013-05-17 08:43:00,53.0,41.0,30.15,NNW,338,0.0,2.0,63,0.00,,,0.00,,2013-05-17 12:43:00,
2013-05-17 08:53:00,54.0,41.0,30.17,NNW,330,0.0,1.0,61,0.00,,,0.00,,2013-05-17 12:53:00,
2013-05-17 09:03:00,54.0,40.0,30.18,North,2,1.0,2.0,60,0.00,,,0.00,,2013-05-17 13:03:00,
2013-05-17 09:12:00,54.0,40.0,30.18,North,2,1.0,2.0,60,0.00,,,0.00,,2013-05-17 13:12:00,
2013-05-17 09:23:00,55.0,41.0,30.18,WSW,248,1.0,2.0,58,0.00,,,0.00,,2013-05-17 13:23:00,
2013-05-17 09:33:00,55.0,41.0,30.18,NW,315,1.0,1.0,58,0.00,,,0.00,,2013-05-17 13:33:00,
2013-05-17 09:42:00,55.0,41.0,30.18,NW,315,1.0,1.0,58,0.00,,,0.00,,2013-05-17 13:42:00,
2013-05-17 09:52:00,56.0,41.0,30.19,NNW,347,0.0,1.0,57,0.00,,,0.00,,2013-05-17 13:52:00,
2013-05-17 10:02:00,56.0,41.0,30.18,NNW,328,1.0,2.0,57,0.00,,,0.00,,2013-05-17 14:02:00,
2013-05-17 10:13:00,56.0,41.0,30.18,NNW,328,1.0,2.0,57,0.00,,,0.00,,2013-05-17 14:13:00,
2013-05-17 10:22:00,56.0,41.0,30.19,WNW,293,1.0,2.0,58,0.00,,,0.00,,2013-05-17 14:22:00,
2013-05-17 10:34:00,57.0,42.0,30.19,NNE,22,1.0,1.0,57,0.00,,,0.00,,2013-05-17 14:34:00,
2013-05-17 10:43:00,57.0,42.0,30.19,NNE,22,1.0,1.0,57,0.00,,,0.00,,2013-05-17 14:43:00,
2013-05-17 10:53:00,58.0,42.0,30.18,North,350,1.0,2.0,55,0.00,,,0.00,,2013-05-17 14:53:00,
2013-05-17 11:03:00,58.0,42.0,30.19,North,358,1.0,2.0,55,0.00,,,0.00,,2013-05-17 15:03:00,
2013-05-17 11:14:00,58.0,42.0,30.19,North,358,1.0,2.0,55,0.00,,,0.00,,2013-05-17 15:14:00,
2013-05-17 11:25:00,59.0,43.0,30.20,NNW,327,1.0,3.0,55,0.00,,,0.00,,2013-05-17 15:25:00,
2013-05-17 11:37:00,60.0,43.0,30.20,WNW,302,1.0,2.0,53,0.00,,,0.00,,2013-05-17 15:37:00,
2013-05-17 11:47:00,60.0,43.0,30.20,WNW,302,1.0,2.0,53,0.00,,,0.00,,2013-05-17 15:47:00,
2013-05-17 11:57:00,60.0,42.0,30.20,West,261,1.0,2.0,52,0.00,,,0.00,,2013-05-17 15:57:00,
2013-05-17 12:07:00,60.0,42.0,30.20,NNW,327,1.0,2.0,51,0.00,,,0.00,,2013-05-17 16:07:00,
2013-05-17 12:14:00,60.0,42.0,30.20,NNW,327,1.0,2.0,51,0.00,,,0.00,,2013-05-17 16:14:00,
2013-05-17 12:26:00,62.0,44.0,30.21,North,2,1.0,2.0,51,0.00,,,0.00,,2013-05-17 16:26:00,
2013-05-17 12:37:00,62.0,44.0,30.21,NNW,345,0.0,2.0,51,0.00,,,0.00,,2013-05-17 16:37:00,
2013-05-17 12:49:00,62.0,44.0,30.21,NNW,345,0.0,2.0,51,0.00,,,0.00,,2013-05-17 16:49:00,
2013-05-17 12:56:00,63.0,44.0,30.21,WNW,286,1.0,2.0,49,0.00,,,0.00,,2013-05-17 16:56:00,
2013-05-17 13:08:00,64.0,44.0,30.21,NNW,334,1.0,2.0,48,0.00,,,0.00,,2013-05-17 17:08:00,
2013-05-17 13:19:00,64.0,44.0,30.21,NNW,334,1.0,2.0,48,0.00,,,0.00,,2013-05-17 17:19:00,
2013-05-17 13:30:00,66.0,45.0,30.22,North,354,1.0,3.0,47,0.00,,,0.00,,2013-05-17 17:30:00,
2013-05-17 13:40:00,67.0,-99.9,30.22,NW,307,2.0,3.0,48,0.00,,,0.00,,2013-05-17 17:40:00,
2013-05-17 13:49:00,67.0,47.0,30.22,NW,307,2.0,3.0,48,0.00,,,0.00,,2013-05-17 17:49:00,
2013-05-17 14:00:00,68.0,-99.9,30.21,NE,49,1.0,3.0,45,0.00,,,0.00,,2013-05-17 18:00:00,
2013-05-17 14:09:00,69.0,46.0,30.20,WNW,282,1.0,5.0,44,0.00,,,0.00,,2013-05-17 18:09:00,
2013-05-17 14:20:00,69.0,46.0,30.20,WNW,282,1.0,5.0,44,0.00,,,0.00,,2013-05-17 18:20:00,
2013-05-17 14:30:00,70.0,46.0,30.21,WSW,238,2.0,3.0,42,0.00,,,0.00,,2013-05-17 18:30:00,
2013-05-17 14:40:00,71.0,-99.9,30.21,NNW,338,1.0,2.0,42,0.00,,,0.00,,2013-05-17 18:40:00,
2013-05-17 14:50:00,-999.0,-99.9,30.21,NNW,338,1.0,2.0,42,0.00,,,0.00,,2013-05-17 18:50:00,
2013-05-17 15:00:00,72.0,-99.9,30.22,NE,36,1.0,2.0,40,0.00,,,0.00,,2013-05-17 19:00:00,
2013-05-17 15:10:00,72.0,45.0,30.23,NNW,343,1.0,2.0,38,0.00,,,0.00,,2013-05-17 19:10:00,
2013-05-17 15:20:00,72.0,45.0,30.23,NNW,343,1.0,2.0,38,0.00,,,0.00,,2013-05-17 19:20:00,
2013-05-17 15:30:00,73.0,47.0,30.23,NE,56,1.0,2.0,40,0.00,,,0.00,,2013-05-17 19:30:00,
2013-05-17 15:40:00,74.0,47.0,30.23,ESE,116,1.0,3.0,38,0.00,,,0.00,,2013-05-17 19:40:00,
2013-05-17 15:51:00,74.0,47.0,30.23,ESE,116,1.0,3.0,38,0.00,,,0.00,,2013-05-17 19:51:00,
2013-05-17 16:01:00,-999.0,-99.9,30.24,WSW,248,1.0,5.0,37,0.00,,,0.00,,2013-05-17 20:01:00,
2013-05-17 16:09:00,75.0,45.0,30.24,NE,53,1.0,5.0,34,0.00,,,0.00,,2013-05-17 20:09:00,
2013-05-17 16:20:00,75.0,45.0,30.24,NE,53,1.0,5.0,34,0.00,,,0.00,,2013-05-17 20:20:00,
2013-05-17 16:30:00,76.0,46.0,30.24,North,353,1.0,3.0,34,0.00,,,0.00,,2013-05-17 20:30:00,
2013-05-17 16:40:00,76.0,44.0,30.24,WNW,297,1.0,2.0,32,0.00,,,0.00,,2013-05-17 20:40:00,
2013-05-17 16:50:00,76.0,44.0,30.24,WNW,297,1.0,2.0,32,0.00,,,0.00,,2013-05-17 20:50:00,
2013-05-17 16:58:00,77.0,44.0,30.24,NNE,33,1.0,2.0,31,0.00,,,0.00,,2013-05-17 20:58:00,
2013-05-17 17:07:00,77.0,44.0,30.24,ESE,122,2.0,5.0,31,0.00,,,0.00,,2013-05-17 21:07:00,
2013-05-17 17:26:00,76.0,43.0,30.24,ENE,58,0.0,5.0,31,0.00,,,0.00,,2013-05-17 21:26:00,
2013-05-17 17:39:00,75.0,43.0,30.24,East,98,1.0,3.0,32,0.00,,,0.00,,2013-05-17 21:39:00,
2013-05-17 17:49:00,75.0,43.0,30.24,East,98,1.0,3.0,32,0.00,,,0.00,,2013-05-17 21:49:00,
2013-05-17 17:58:00,73.0,42.0,30.24,ESE,116,1.0,5.0,33,0.00,,,0.00,,2013-05-17 21:58:00,
2013-05-17 18:07:00,72.0,43.0,30.24,ESE,110,2.0,5.0,35,0.00,,,0.00,,2013-05-17 22:07:00,
2013-05-17 18:17:00,72.0,43.0,30.24,ESE,110,2.0,5.0,35,0.00,,,0.00,,2013-05-17 22:17:00,
2013-05-17 18:28:00,70.0,40.0,30.23,ENE,63,1.0,3.0,34,0.00,,,0.00,,2013-05-17 22:28:00,
2013-05-17 18:38:00,70.0,40.0,30.23,NNE,22,2.0,5.0,34,0.00,,,0.00,,2013-05-17 22:38:00,
2013-05-17 18:47:00,70.0,40.0,30.23,NNE,22,2.0,5.0,34,0.00,,,0.00,,2013-05-17 22:47:00,
2013-05-17 18:55:00,69.0,41.0,30.16,East,80,2.0,6.0,36,0.00,,,0.00,,2013-05-17 22:55:00,
2013-05-17 19:04:00,69.0,41.0,30.12,East,90,2.0,6.0,36,0.00,,,0.00,,2013-05-17 23:04:00,
2013-05-17 19:13:00,69.0,41.0,30.12,East,90,2.0,6.0,36,0.00,,,0.00,,2013-05-17 23:13:00,
2013-05-17 19:23:00,68.0,40.0,30.09,East,81,2.0,6.0,36,0.00,,,0.00,,2013-05-17 23:23:00,
2013-05-17 19:37:00,68.0,41.0,30.09,NE,56,2.0,3.0,38,0.00,,,0.00,,2013-05-17 23:37:00,
2013-05-17 19:47:00,68.0,41.0,30.09,NE,56,2.0,3.0,38,0.00,,,0.00,,2013-05-17 23:47:00,
2013-05-17 19:54:00,67.0,41.0,30.09,NE,56,1.0,2.0,39,0.00,,,0.00,,2013-05-17 23:54:00,
2013-05-17 20:02:00,66.0,40.0,30.10,East,79,1.0,2.0,38,0.00,,,0.00,,2013-05-18 00:02:00,
2013-05-17 20:14:00,66.0,40.0,30.10,East,79,1.0,2.0,38,0.00,,,0.00,,2013-05-18 00:14:00,
2013-05-17 20:22:00,65.0,41.0,30.10,NNE,14,0.0,1.0,42,0.00,,,0.00,,2013-05-18 00:22:00,
2013-05-17 20:33:00,65.0,41.0,30.10,North,0,0.0,0.0,42,0.00,,,0.00,,2013-05-18 00:33:00,
2013-05-17 20:44:00,65.0,41.0,30.10,North,0,0.0,0.0,42,0.00,,,0.00,,2013-05-18 00:44:00,
2013-05-17 20:54:00,63.0,42.0,30.10,WNW,292,0.0,2.0,46,0.00,,,0.00,,2013-05-18 00:54:00,
2013-05-17 21:03:00,63.0,43.0,30.11,SW,225,0.0,0.0,48,0.00,,,0.00,,2013-05-18 01:03:00,
2013-05-17 21:13:00,63.0,43.0,30.11,SW,225,0.0,0.0,48,0.00,,,0.00,,2013-05-18 01:13:00,
2013-05-17 21:24:00,62.0,43.0,30.12,NNE,22,0.0,1.0,49,0.00,,,0.00,,2013-05-18 01:24:00,
2013-05-17 21:32:00,61.0,41.0,30.12,NNE,32,0.0,2.0,48,0.00,,,0.00,,2013-05-18 01:32:00,
2013-05-17 21:43:00,61.0,41.0,30.12,NNE,32,0.0,2.0,48,0.00,,,0.00,,2013-05-18 01:43:00,
2013-05-17 21:52:00,61.0,41.0,30.14,ENE,68,1.0,2.0,47,0.00,,,0.00,,2013-05-18 01:52:00,
2013-05-17 22:02:00,61.0,41.0,30.14,ENE,77,2.0,6.0,47,0.00,,,0.00,,2013-05-18 02:02:00,
2013-05-17 22:12:00,61.0,41.0,30.14,ENE,77,2.0,6.0,47,0.00,,,0.00,,2013-05-18 02:12:00,
2013-05-17 22:22:00,61.0,41.0,30.15,East,90,2.0,5.0,47,0.00,,,0.00,,2013-05-18 02:22:00,
2013-05-17 22:32:00,61.0,41.0,30.15,East,79,2.0,5.0,47,0.00,,,0.00,,2013-05-18 02:32:00,
2013-05-17 22:42:00,61.0,41.0,30.15,East,79,2.0,5.0,47,0.00,,,0.00,,2013-05-18 02:42:00,
2013-05-17 22:54:00,60.0,40.0,30.16,ENE,58,1.0,2.0,48,0.00,,,0.00,,2013-05-18 02:54:00,
2013-05-17 23:03:00,60.0,40.0,30.16,NW,326,1.0,2.0,48,0.00,,,0.00,,2013-05-18 03:03:00,
2013-05-17 23:12:00,60.0,40.0,30.16,NW,326,1.0,2.0,48,0.00,,,0.00,,2013-05-18 03:12:00,
2013-05-17 23:23:00,60.0,41.0,30.15,NE,34,2.0,2.0,49,0.00,,,0.00,,2013-05-18 03:23:00,
2013-05-17 23:33:00,60.0,40.0,30.15,ENE,57,1.0,3.0,48,0.00,,,0.00,,2013-05-18 03:33:00,
2013-05-17 23:43:00,60.0,40.0,30.15,ENE,57,1.0,3.0,48,0.00,,,0.00,,2013-05-18 03:43:00,
2013-05-17 23:53:00,59.0,40.0,30.16,ENE,68,2.0,3.0,49,0.00,,,0.00,,2013-05-18 03:53:00,